TimeCDT,TemperatureF,Dew PointF,Humidity,Sea Level PressureIn,VisibilityMPH,Wind Direction,Wind SpeedMPH,Gust SpeedMPH,PrecipitationIn,Events,Conditions,WindDirDegrees,DateUTC
12:52 AM,48.0,42.1,80,29.94,10.0,ENE,10.4,-,N/A,,Clear,70,2013-10-03 05:52:00
1:52 AM,48.0,42.1,80,29.92,10.0,NE,8.1,-,N/A,,Clear,50,2013-10-03 06:52:00
2:52 AM,46.9,42.1,83,29.93,10.0,NNE,9.2,-,N/A,,Clear,20,2013-10-03 07:52:00
3:52 AM,48.0,44.1,86,29.92,10.0,North,9.2,-,N/A,,Clear,360,2013-10-03 08:52:00
4:52 AM,48.9,44.1,83,29.95,10.0,NW,4.6,-,N/A,,Scattered Clouds,310,2013-10-03 09:52:00
5:52 AM,50.0,45.0,83,29.96,10.0,NNW,8.1,-,N/A,,Overcast,340,2013-10-03 10:52:00
6:52 AM,48.9,45.0,86,29.95,10.0,North,16.1,23.0,0.00,Rain,Light Rain,10,2013-10-03 11:52:00
7:52 AM,50.0,45.0,83,29.95,10.0,North,13.8,-,0.00,,Overcast,10,2013-10-03 12:52:00
8:52 AM,50.0,45.0,83,29.94,10.0,NNE,12.7,-,N/A,,Overcast,20,2013-10-03 13:52:00
9:52 AM,53.1,45.0,74,29.95,10.0,North,12.7,-,N/A,,Mostly Cloudy,10,2013-10-03 14:52:00
10:52 AM,55.0,42.1,62,29.96,10.0,NE,16.1,24.2,N/A,,Overcast,50,2013-10-03 15:52:00
11:52 AM,54.0,39.9,59,29.96,10.0,NE,12.7,-,N/A,,Overcast,40,2013-10-03 16:52:00
12:52 PM,54.0,41.0,62,29.97,10.0,NE,11.5,-,N/A,,Overcast,50,2013-10-03 17:52:00
1:52 PM,55.0,41.0,59,29.98,10.0,NE,10.4,-,N/A,,Overcast,50,2013-10-03 18:52:00
2:52 PM,55.0,39.9,57,29.97,10.0,NNE,17.3,-,N/A,,Overcast,30,2013-10-03 19:52:00
3:52 PM,55.0,37.9,53,29.97,10.0,NE,19.6,25.3,N/A,,Overcast,40,2013-10-03 20:52:00
4:52 PM,54.0,37.0,53,29.98,10.0,NE,18.4,-,N/A,,Overcast,50,2013-10-03 21:52:00
5:52 PM,52.0,39.0,61,30.01,10.0,NE,13.8,-,N/A,,Overcast,40,2013-10-03 22:52:00
6:52 PM,51.1,39.0,63,30.01,10.0,NE,13.8,21.9,0.00,,Overcast,50,2013-10-03 23:52:00
7:52 PM,51.1,39.0,63,30.03,10.0,NE,13.8,-,N/A,,Overcast,50,2013-10-04 00:52:00
8:52 PM,51.1,39.0,63,30.05,10.0,NNE,11.5,-,N/A,,Overcast,20,2013-10-04 01:52:00
9:52 PM,51.1,39.0,63,30.07,10.0,NE,16.1,-,N/A,,Overcast,40,2013-10-04 02:52:00
11:52 PM,50.0,39.9,68,30.05,10.0,NNE,18.4,26.5,N/A,,Overcast,30,2013-10-04 04:52:00